Погода в Змеевке

Россия / Тамбовская область     53°15′40″N   40°09′22″E
темп.,
°C
ветер,
м/с
пор.,
м/с
влажн.,
%
обл.,
%
осадки,
мм/ч
давл.,
гПа
погр.,
м
18 мая, ср
ср1800:00+6з61196100 0.8 1004524
03:00+7з51097100 5.9 1004446
06:00+7сз349895 0.9 1006216
09:00+9с4591100 1.1 1008403
12:00+12с567799 0.5 10101110
15:00+13с567196 1.3 10111260
18:00+12ссз58725 0.6 1012728
21:00+8сз47798 0.6 101397
19 мая, чт
чт1900:00+7ссз411885 0.0 1015255
03:00+5ссз49955 0.0 1016224
06:00+6сз37875 0.0 1016226
09:00+11з57635 0.0 1016788
12:00+14з795593 0.1 10152076
15:00+13зсз71065100 0.6 10141639
18:00+12ссз58755 1.0 10141023
21:00+7сз34865 1.0 101568
20 мая, пт
пт2000:00+5ссз37915 0.0 1016130
03:00+4ссз49905 0.0 1017187
06:00+5с38845 0.0 1018248
09:00+9с46585 0.0 10191007
12:00+10ссз5757100 0.1 10191618
15:00+11ссз4656100 0.1 10181446
18:00+10ссз2463100 0.0 1017944
21:00+8сз1167100 0.0 101610
21 мая, сб
сб2100:00+6в2270100 0.0 101414
03:00+6юв1173100 0.0 101213
06:00+7в2477100 0.0 1011182
09:00+10всв575848 0.0 10101173
12:00+11св6751100 0.1 10091855
15:00+12ссв784899 0.5 10092312
18:00+10с79665 0.5 10101193
21:00+6ссз487864 0.6 1011178
22 мая, вс
вс2200:00+4ссз35825 0.0 101286
03:00+2ссз37811 0.0 1012127
06:00+4ссз37770 0.0 1012214
09:00+9с56595 0.0 1011857
12:00+11с454791 0.0 10111998
15:00+12ссз5546100 0.0 10102053
18:00+11ссз355787 0.0 1010824
21:00+6ссз337029 0.0 101130